User: anonymous   Login
Location: Chimay
(50.0486°N, 4.3171°E)
Time: 12:02:23
(UTC+00:00)
Language:

SL-27 R/B - Orbit

View from above orbital plane
View from above orbital plane
View from above satellite
View from above satellite

Ground track
Ground track

The orbit data is extracted from the following two-line orbital elements,

1 40354U 14084B   20296.89607393 +.00001247 +00000-0 +31365-4 0  9993
2 40354 074.7357 124.4045 0038580 249.5418 110.1650 15.40429162327750
Epoch (UTC): 22 October 2020 21:30:20
Eccentricity: 0.0038580
inclination: 74.7357°
perigee height: 418 km
apogee height: 471 km
right ascension of ascending node: 124.4045°
argument of perigee: 249.5418°
revolutions per day: 15.40429162
mean anomaly at epoch: 110.1650°
orbit number at epoch: 32775

The dashed part of the orbit path shows where the satellite is in the earth's shadow,  

DLR